User: anonymous   Login
Location: Libas
(9.8833°N, 125.9833°E)
Time: 14:06:21
(UTC+00:00)
Language:

GPS 2-18 Rocket1 - Orbit

View from above orbital plane
View from above orbital plane
View from above satellite
View from above satellite

Ground track
Ground track

The orbit data is extracted from the following two-line orbital elements,

1 22447U 93007B   21017.13746615  .00002110  00000-0  54810-4 0  9998
2 22447  20.8512 193.2122 0040625  74.7397 285.7534 15.26794907533660
Epoch (UTC): 17 January 2021 03:17:57
Eccentricity: 0.0040625
inclination: 20.8512°
perigee height: 457 km
apogee height: 513 km
right ascension of ascending node: 193.2122°
argument of perigee: 74.7397°
revolutions per day: 15.26794907
mean anomaly at epoch: 285.7534°
orbit number at epoch: 53366

The dashed part of the orbit path shows where the satellite is in the earth's shadow,  

DLR